Time,TemperatureF,DewpointF,PressureIn,WindDirection,WindDirectionDegrees,WindSpeedMPH,WindSpeedGustMPH,Humidity,HourlyPrecipIn,Conditions,Clouds,dailyrainin,SoftwareType,DateUTC
2013-02-07 00:00:00,27.1,22.4,30.17,SSE,167,2.4,5.7,82,0.00,,,0.00,SomeHackedPerlScript,2013-02-07 05:00:00,
2013-02-07 00:02:00,27.2,22.6,30.17,ESE,105,0.0,5.7,82,0.00,,,0.00,SomeHackedPerlScript,2013-02-07 05:02:00,
2013-02-07 00:07:00,27.4,22.9,30.17,South,169,0.5,3.9,82,0.00,,,0.00,SomeHackedPerlScript,2013-02-07 05:07:00,
2013-02-07 00:12:00,27.3,22.7,30.17,SW,214,0.0,2.7,82,0.00,,,0.00,SomeHackedPerlScript,2013-02-07 05:12:00,
2013-02-07 00:17:00,27.4,22.7,30.16,ESE,119,2.1,4.2,82,0.00,,,0.00,SomeHackedPerlScript,2013-02-07 05:17:00,
2013-02-07 00:22:00,27.3,22.7,30.17,SSE,162,0.0,4.6,82,0.00,,,0.00,SomeHackedPerlScript,2013-02-07 05:22:00,
2013-02-07 00:27:00,27.4,22.7,30.17,ESE,121,0.7,1.9,82,0.00,,,0.00,SomeHackedPerlScript,2013-02-07 05:27:00,
2013-02-07 00:32:00,27.4,22.5,30.17,SSE,159,1.9,2.1,81,0.00,,,0.00,SomeHackedPerlScript,2013-02-07 05:32:00,
2013-02-07 00:37:00,27.4,22.7,30.17,SE,137,2.5,3.6,82,0.00,,,0.00,SomeHackedPerlScript,2013-02-07 05:37:00,
2013-02-07 00:42:00,27.4,22.6,30.17,SE,141,1.8,4.5,81,0.00,,,0.00,SomeHackedPerlScript,2013-02-07 05:42:00,
2013-02-07 00:47:00,27.4,22.6,30.18,SE,146,0.7,4.0,81,0.00,,,0.00,SomeHackedPerlScript,2013-02-07 05:47:00,
2013-02-07 00:52:00,27.5,22.7,30.18,East,101,0.0,3.1,82,0.00,,,0.00,SomeHackedPerlScript,2013-02-07 05:52:00,
2013-02-07 00:57:00,27.5,22.7,30.18,ESE,117,0.7,3.2,81,0.00,,,0.00,SomeHackedPerlScript,2013-02-07 05:57:00,
2013-02-07 01:02:00,27.5,22.7,30.18,SSE,147,1.8,2.9,81,0.00,,,0.00,SomeHackedPerlScript,2013-02-07 06:02:00,
2013-02-07 01:07:00,27.8,22.9,30.19,South,190,2.9,2.9,81,0.00,,,0.00,SomeHackedPerlScript,2013-02-07 06:07:00,
2013-02-07 01:12:00,27.6,22.5,30.19,South,171,1.6,4.0,80,0.00,,,0.00,SomeHackedPerlScript,2013-02-07 06:12:00,
2013-02-07 01:17:00,27.8,22.7,30.19,South,181,2.3,6.5,80,0.00,,,0.00,SomeHackedPerlScript,2013-02-07 06:17:00,
2013-02-07 01:22:00,27.8,22.7,30.18,South,176,0.0,4.8,81,0.00,,,0.00,SomeHackedPerlScript,2013-02-07 06:22:00,
2013-02-07 01:27:00,27.8,22.8,30.18,SSE,167,3.0,5.5,81,0.00,,,0.00,SomeHackedPerlScript,2013-02-07 06:27:00,
2013-02-07 01:32:00,27.8,22.8,30.17,ESE,122,0.0,5.0,81,0.00,,,0.00,SomeHackedPerlScript,2013-02-07 06:32:00,
2013-02-07 01:37:00,27.9,22.6,30.17,South,182,0.0,5.0,80,0.00,,,0.00,SomeHackedPerlScript,2013-02-07 06:37:00,
2013-02-07 01:42:00,27.9,22.6,30.17,South,184,0.0,5.2,80,0.00,,,0.00,SomeHackedPerlScript,2013-02-07 06:42:00,
2013-02-07 01:47:00,27.9,22.4,30.16,South,175,2.1,4.4,79,0.00,,,0.00,SomeHackedPerlScript,2013-02-07 06:47:00,
2013-02-07 01:52:00,27.9,22.6,30.16,South,179,1.6,6.6,80,0.00,,,0.00,SomeHackedPerlScript,2013-02-07 06:52:00,
2013-02-07 01:57:00,27.9,22.5,30.16,SSW,200,3.9,5.2,79,0.00,,,0.00,SomeHackedPerlScript,2013-02-07 06:57:00,
2013-02-07 02:02:00,27.8,22.3,30.16,ESE,112,4.4,4.7,79,0.00,,,0.00,SomeHackedPerlScript,2013-02-07 07:02:00,
2013-02-07 02:07:00,28.0,22.6,30.16,SSW,213,0.0,6.7,79,0.00,,,0.00,SomeHackedPerlScript,2013-02-07 07:07:00,
2013-02-07 02:12:00,27.8,22.3,30.16,SE,141,3.3,5.8,79,0.00,,,0.00,SomeHackedPerlScript,2013-02-07 07:12:00,
2013-02-07 02:17:00,27.9,22.4,30.16,South,176,7.2,9.1,79,0.00,,,0.00,SomeHackedPerlScript,2013-02-07 07:17:00,
2013-02-07 02:22:00,27.9,22.3,30.16,SSE,167,3.1,8.4,79,0.00,,,0.00,SomeHackedPerlScript,2013-02-07 07:22:00,
2013-02-07 02:27:00,27.8,22.0,30.16,SSW,192,5.8,10.6,78,0.00,,,0.00,SomeHackedPerlScript,2013-02-07 07:27:00,
2013-02-07 02:32:00,27.8,22.1,30.16,SSE,151,9.2,9.2,79,0.00,,,0.00,SomeHackedPerlScript,2013-02-07 07:32:00,
2013-02-07 02:37:00,27.5,22.5,30.16,SSE,167,9.2,10.2,81,0.00,,,0.00,SomeHackedPerlScript,2013-02-07 07:37:00,
2013-02-07 02:42:00,27.3,23.3,30.16,South,190,6.1,9.6,84,0.00,,,0.00,SomeHackedPerlScript,2013-02-07 07:42:00,
2013-02-07 02:47:00,26.9,23.7,30.16,SE,142,2.7,10.2,87,0.00,,,0.00,SomeHackedPerlScript,2013-02-07 07:47:00,
2013-02-07 02:52:00,26.5,24.0,30.16,South,191,4.9,11.0,90,0.00,,,0.00,SomeHackedPerlScript,2013-02-07 07:52:00,
2013-02-07 02:57:00,26.2,24.2,30.16,ESE,122,5.4,15.9,92,0.00,,,0.00,SomeHackedPerlScript,2013-02-07 07:57:00,
2013-02-07 03:02:00,26.1,24.4,30.16,South,175,7.9,11.5,93,0.00,,,0.00,SomeHackedPerlScript,2013-02-07 08:02:00,
2013-02-07 03:07:00,26.0,24.5,30.16,South,186,3.3,12.8,94,0.00,,,0.00,SomeHackedPerlScript,2013-02-07 08:07:00,
2013-02-07 03:12:00,25.9,24.6,30.16,South,172,1.5,11.6,94,0.00,,,0.00,SomeHackedPerlScript,2013-02-07 08:12:00,
2013-02-07 03:17:00,25.9,24.6,30.16,SE,128,1.6,9.7,94,0.00,,,0.00,SomeHackedPerlScript,2013-02-07 08:17:00,
2013-02-07 03:22:00,25.9,24.7,30.16,South,189,2.8,9.1,95,0.00,,,0.00,SomeHackedPerlScript,2013-02-07 08:22:00,
2013-02-07 03:27:00,25.9,24.8,30.15,South,170,6.2,9.9,95,0.00,,,0.00,SomeHackedPerlScript,2013-02-07 08:27:00,
2013-02-07 03:32:00,25.8,24.7,30.15,South,174,5.5,8.6,95,0.00,,,0.00,SomeHackedPerlScript,2013-02-07 08:32:00,
2013-02-07 03:37:00,25.8,24.7,30.15,South,172,4.2,6.7,95,0.00,,,0.00,SomeHackedPerlScript,2013-02-07 08:37:00,
2013-02-07 03:42:00,25.8,24.8,30.15,SSW,208,3.3,7.9,95,0.00,,,0.00,SomeHackedPerlScript,2013-02-07 08:42:00,
2013-02-07 03:47:00,25.8,24.8,30.15,SSW,194,2.7,6.3,96,0.00,,,0.00,SomeHackedPerlScript,2013-02-07 08:47:00,
2013-02-07 03:52:00,25.8,24.9,30.15,SE,137,3.3,6.7,96,0.00,,,0.00,SomeHackedPerlScript,2013-02-07 08:52:00,
2013-02-07 03:57:00,25.6,24.7,30.14,SSE,160,3.4,7.4,96,0.00,,,0.00,SomeHackedPerlScript,2013-02-07 08:57:00,
2013-02-07 04:02:00,25.8,24.9,30.14,South,178,2.2,7.6,96,0.00,,,0.00,SomeHackedPerlScript,2013-02-07 09:02:00,
2013-02-07 04:07:00,25.8,24.9,30.14,South,191,4.3,7.3,96,0.00,,,0.00,SomeHackedPerlScript,2013-02-07 09:07:00,
2013-02-07 04:12:00,25.8,24.9,30.14,South,176,4.0,7.1,96,0.00,,,0.00,SomeHackedPerlScript,2013-02-07 09:12:00,
2013-02-07 04:17:00,25.7,24.8,30.14,South,187,2.3,8.4,96,0.00,,,0.00,SomeHackedPerlScript,2013-02-07 09:17:00,
2013-02-07 04:22:00,25.9,25.0,30.14,SSE,165,0.0,7.1,96,0.00,,,0.00,SomeHackedPerlScript,2013-02-07 09:22:00,
2013-02-07 04:27:00,25.8,24.9,30.14,SSE,163,1.9,5.5,96,0.00,,,0.00,SomeHackedPerlScript,2013-02-07 09:27:00,
2013-02-07 04:32:00,25.7,24.8,30.14,SE,125,1.4,4.3,96,0.00,,,0.00,SomeHackedPerlScript,2013-02-07 09:32:00,
2013-02-07 04:37:00,25.7,24.8,30.13,South,185,1.8,5.8,96,0.00,,,0.00,SomeHackedPerlScript,2013-02-07 09:37:00,
2013-02-07 04:42:00,25.8,24.9,30.13,SSE,160,2.3,4.3,96,0.00,,,0.00,SomeHackedPerlScript,2013-02-07 09:42:00,
2013-02-07 04:47:00,25.7,24.8,30.13,SSE,167,4.7,5.8,96,0.00,,,0.00,SomeHackedPerlScript,2013-02-07 09:47:00,
2013-02-07 04:52:00,25.6,24.8,30.13,SSE,167,0.9,6.0,96,0.00,,,0.00,SomeHackedPerlScript,2013-02-07 09:52:00,
2013-02-07 04:57:00,25.5,24.6,30.13,SE,142,2.2,8.5,96,0.00,,,0.00,SomeHackedPerlScript,2013-02-07 09:57:00,
2013-02-07 05:02:00,25.5,24.7,30.13,SW,217,1.0,5.8,96,0.00,,,0.00,SomeHackedPerlScript,2013-02-07 10:02:00,
2013-02-07 05:07:00,25.5,24.7,30.13,South,187,3.0,5.6,96,0.00,,,0.00,SomeHackedPerlScript,2013-02-07 10:07:00,
2013-02-07 05:12:00,25.6,24.8,30.13,SSE,148,0.0,7.4,96,0.00,,,0.00,SomeHackedPerlScript,2013-02-07 10:12:00,
2013-02-07 05:17:00,25.6,24.8,30.13,South,190,2.3,6.6,96,0.00,,,0.00,SomeHackedPerlScript,2013-02-07 10:17:00,
2013-02-07 05:22:00,25.6,24.8,30.13,SSE,159,1.0,7.4,96,0.00,,,0.00,SomeHackedPerlScript,2013-02-07 10:22:00,
2013-02-07 05:27:00,25.6,24.8,30.12,South,173,6.4,6.4,96,0.00,,,0.00,SomeHackedPerlScript,2013-02-07 10:27:00,
2013-02-07 05:32:00,25.5,24.7,30.12,South,186,4.0,7.8,96,0.00,,,0.00,SomeHackedPerlScript,2013-02-07 10:32:00,
2013-02-07 05:37:00,25.6,24.8,30.12,SSE,165,3.6,7.6,96,0.00,,,0.00,SomeHackedPerlScript,2013-02-07 10:37:00,
2013-02-07 05:42:00,25.6,24.9,30.12,South,169,1.9,6.4,97,0.00,,,0.00,SomeHackedPerlScript,2013-02-07 10:42:00,
2013-02-07 05:47:00,25.6,24.9,30.12,South,173,6.9,6.9,97,0.00,,,0.00,SomeHackedPerlScript,2013-02-07 10:47:00,
2013-02-07 05:52:00,25.6,24.8,30.12,South,190,4.9,8.0,96,0.00,,,0.00,SomeHackedPerlScript,2013-02-07 10:52:00,
2013-02-07 05:57:00,25.6,24.8,30.12,South,184,3.9,7.7,96,0.00,,,0.00,SomeHackedPerlScript,2013-02-07 10:57:00,
2013-02-07 06:02:00,25.7,24.9,30.12,South,186,5.1,7.9,96,0.00,,,0.00,SomeHackedPerlScript,2013-02-07 11:02:00,
2013-02-07 06:07:00,25.7,24.9,30.12,South,169,2.1,7.1,96,0.00,,,0.00,SomeHackedPerlScript,2013-02-07 11:07:00,
2013-02-07 06:12:00,25.7,24.8,30.12,South,183,4.7,6.3,96,0.00,,,0.00,SomeHackedPerlScript,2013-02-07 11:12:00,
2013-02-07 06:17:00,25.6,24.7,30.13,SSE,160,3.6,7.4,96,0.00,,,0.00,SomeHackedPerlScript,2013-02-07 11:17:00,
2013-02-07 06:22:00,25.6,24.7,30.12,South,179,3.2,7.8,96,0.00,,,0.00,SomeHackedPerlScript,2013-02-07 11:22:00,
2013-02-07 06:27:00,25.5,24.6,30.13,SSE,168,4.8,6.5,96,0.00,,,0.00,SomeHackedPerlScript,2013-02-07 11:27:00,
2013-02-07 06:32:00,25.5,24.6,30.12,SSE,163,1.2,7.1,96,0.00,,,0.00,SomeHackedPerlScript,2013-02-07 11:32:00,
2013-02-07 06:37:00,25.6,24.7,30.12,SE,146,0.9,7.2,96,0.00,,,0.00,SomeHackedPerlScript,2013-02-07 11:37:00,
2013-02-07 06:42:00,25.6,24.7,30.13,SE,146,0.0,4.3,96,0.00,,,0.00,SomeHackedPerlScript,2013-02-07 11:42:00,
2013-02-07 06:47:00,25.6,24.6,30.12,SSE,167,1.6,3.3,96,0.00,,,0.00,SomeHackedPerlScript,2013-02-07 11:47:00,
2013-02-07 06:52:00,25.5,24.4,30.13,SE,136,1.5,4.7,95,0.00,,,0.00,SomeHackedPerlScript,2013-02-07 11:52:00,
2013-02-07 06:57:00,25.5,24.4,30.13,SE,130,2.1,6.3,95,0.00,,,0.00,SomeHackedPerlScript,2013-02-07 11:57:00,
2013-02-07 07:02:00,25.5,24.5,30.13,SE,139,1.9,5.2,95,0.00,,,0.00,SomeHackedPerlScript,2013-02-07 12:02:00,
2013-02-07 07:07:00,25.5,24.5,30.12,SSE,155,1.9,4.0,96,0.00,,,0.00,SomeHackedPerlScript,2013-02-07 12:07:00,
2013-02-07 07:12:00,25.6,24.6,30.12,SE,138,1.1,3.6,96,0.00,,,0.00,SomeHackedPerlScript,2013-02-07 12:12:00,
2013-02-07 07:17:00,25.6,24.6,30.12,SSE,167,3.5,3.5,96,0.00,,,0.00,SomeHackedPerlScript,2013-02-07 12:17:00,
2013-02-07 07:22:00,25.6,24.7,30.13,SSE,151,2.9,4.0,96,0.00,,,0.00,SomeHackedPerlScript,2013-02-07 12:22:00,
2013-02-07 07:27:00,25.7,24.8,30.12,ESE,108,0.0,3.7,96,0.00,,,0.00,SomeHackedPerlScript,2013-02-07 12:27:00,
2013-02-07 07:32:00,25.7,24.7,30.13,ESE,104,0.0,0.2,96,0.00,,,0.00,SomeHackedPerlScript,2013-02-07 12:32:00,
2013-02-07 07:37:00,25.7,24.7,30.12,East,101,0.0,2.8,96,0.00,,,0.00,SomeHackedPerlScript,2013-02-07 12:37:00,
2013-02-07 07:42:00,25.8,24.8,30.13,ESE,122,0.7,2.3,96,0.00,,,0.00,SomeHackedPerlScript,2013-02-07 12:42:00,
2013-02-07 07:47:00,25.7,24.7,30.13,ESE,105,0.6,2.8,96,0.00,,,0.00,SomeHackedPerlScript,2013-02-07 12:47:00,
2013-02-07 07:52:00,25.7,24.7,30.13,ESE,104,1.4,4.2,95,0.00,,,0.00,SomeHackedPerlScript,2013-02-07 12:52:00,
2013-02-07 07:57:00,25.7,24.6,30.13,SSE,149,0.0,4.5,95,0.00,,,0.00,SomeHackedPerlScript,2013-02-07 12:57:00,
2013-02-07 08:02:00,25.7,24.6,30.13,SSE,155,0.4,6.3,95,0.00,,,0.00,SomeHackedPerlScript,2013-02-07 13:02:00,
2013-02-07 08:07:00,25.7,24.5,30.13,SSE,157,1.4,5.0,95,0.00,,,0.00,SomeHackedPerlScript,2013-02-07 13:07:00,
2013-02-07 08:12:00,25.7,24.5,30.12,East,80,0.0,4.2,95,0.00,,,0.00,SomeHackedPerlScript,2013-02-07 13:12:00,
2013-02-07 08:17:00,25.8,24.5,30.12,SE,127,0.0,5.1,94,0.00,,,0.00,SomeHackedPerlScript,2013-02-07 13:17:00,
2013-02-07 08:22:00,25.9,24.6,30.13,SE,139,1.6,2.1,94,0.00,,,0.00,SomeHackedPerlScript,2013-02-07 13:22:00,
2013-02-07 08:27:00,26.0,24.6,30.13,South,176,3.4,3.9,94,0.00,,,0.00,SomeHackedPerlScript,2013-02-07 13:27:00,
2013-02-07 08:32:00,26.0,24.5,30.13,East,87,0.0,4.8,94,0.00,,,0.00,SomeHackedPerlScript,2013-02-07 13:32:00,
2013-02-07 08:37:00,26.2,24.7,30.13,East,87,0.0,0.0,93,0.00,,,0.00,SomeHackedPerlScript,2013-02-07 13:37:00,
2013-02-07 08:42:00,26.3,24.8,30.13,ESE,122,2.1,0.0,93,0.00,,,0.00,SomeHackedPerlScript,2013-02-07 13:42:00,
2013-02-07 08:47:00,26.4,24.5,30.14,SE,135,1.0,3.7,92,0.00,,,0.00,SomeHackedPerlScript,2013-02-07 13:47:00,
2013-02-07 08:52:00,26.6,24.8,30.14,NE,41,1.0,3.6,92,0.00,,,0.00,SomeHackedPerlScript,2013-02-07 13:52:00,
2013-02-07 08:57:00,26.6,24.6,30.13,East,98,1.0,2.2,92,0.00,,,0.00,SomeHackedPerlScript,2013-02-07 13:57:00,
2013-02-07 09:02:00,26.7,24.6,30.13,ESE,108,0.4,3.0,91,0.00,,,0.00,SomeHackedPerlScript,2013-02-07 14:02:00,
2013-02-07 09:07:00,26.9,24.6,30.13,East,98,2.7,3.5,91,0.00,,,0.00,SomeHackedPerlScript,2013-02-07 14:07:00,
2013-02-07 09:12:00,27.0,24.7,30.13,SE,131,0.0,5.0,90,0.00,,,0.00,SomeHackedPerlScript,2013-02-07 14:12:00,
2013-02-07 09:17:00,27.2,24.8,30.13,ENE,68,1.9,2.4,90,0.00,,,0.00,SomeHackedPerlScript,2013-02-07 14:17:00,
2013-02-07 09:22:00,27.2,24.7,30.13,East,96,2.1,4.4,90,0.00,,,0.00,SomeHackedPerlScript,2013-02-07 14:22:00,
2013-02-07 09:27:00,27.2,24.4,30.12,South,177,0.7,3.0,89,0.00,,,0.00,SomeHackedPerlScript,2013-02-07 14:27:00,
2013-02-07 09:32:00,27.4,24.5,30.13,SSE,163,2.5,4.7,88,0.00,,,0.00,SomeHackedPerlScript,2013-02-07 14:32:00,
2013-02-07 09:37:00,27.6,24.9,30.12,ESE,103,0.4,5.0,89,0.00,,,0.00,SomeHackedPerlScript,2013-02-07 14:37:00,
2013-02-07 09:42:00,27.7,24.7,30.12,East,79,0.4,4.8,88,0.00,,,0.00,SomeHackedPerlScript,2013-02-07 14:42:00,
2013-02-07 09:47:00,27.8,24.5,30.12,SE,133,3.2,3.9,87,0.00,,,0.00,SomeHackedPerlScript,2013-02-07 14:47:00,
2013-02-07 09:52:00,27.8,24.6,30.13,East,83,2.7,5.6,87,0.00,,,0.00,SomeHackedPerlScript,2013-02-07 14:52:00,
2013-02-07 09:57:00,27.9,24.4,30.12,North,11,1.6,4.5,86,0.00,,,0.00,SomeHackedPerlScript,2013-02-07 14:57:00,
2013-02-07 10:02:00,28.0,24.4,30.13,SE,136,1.0,7.0,86,0.00,,,0.00,SomeHackedPerlScript,2013-02-07 15:02:00,
2013-02-07 10:07:00,28.2,24.9,30.12,ENE,62,0.0,5.5,87,0.00,,,0.00,SomeHackedPerlScript,2013-02-07 15:07:00,
2013-02-07 10:12:00,28.1,24.5,30.12,East,101,3.3,4.3,86,0.00,,,0.00,SomeHackedPerlScript,2013-02-07 15:12:00,
2013-02-07 10:17:00,28.3,24.8,30.12,ESE,119,0.0,6.1,86,0.00,,,0.00,SomeHackedPerlScript,2013-02-07 15:17:00,
2013-02-07 10:22:00,28.4,24.9,30.12,ESE,119,0.0,5.5,86,0.00,,,0.00,SomeHackedPerlScript,2013-02-07 15:22:00,
2013-02-07 10:27:00,28.3,24.5,30.12,ESE,107,3.3,4.8,85,0.00,,,0.00,SomeHackedPerlScript,2013-02-07 15:27:00,
2013-02-07 10:32:00,28.6,25.1,30.12,SE,136,1.5,6.0,86,0.00,,,0.00,SomeHackedPerlScript,2013-02-07 15:32:00,
2013-02-07 10:37:00,28.7,25.0,30.12,SSE,154,1.2,5.1,86,0.00,,,0.00,SomeHackedPerlScript,2013-02-07 15:37:00,
2013-02-07 10:42:00,28.7,24.6,30.11,SSE,151,0.0,5.0,84,0.00,,,0.00,SomeHackedPerlScript,2013-02-07 15:42:00,
2013-02-07 10:47:00,29.0,25.3,30.11,East,98,3.0,6.9,85,0.00,,,0.00,SomeHackedPerlScript,2013-02-07 15:47:00,
2013-02-07 10:52:00,29.0,24.9,30.11,SE,132,0.0,6.3,84,0.00,,,0.00,SomeHackedPerlScript,2013-02-07 15:52:00,
2013-02-07 10:57:00,29.2,25.0,30.11,SE,134,3.4,4.5,84,0.00,,,0.00,SomeHackedPerlScript,2013-02-07 15:57:00,
2013-02-07 11:02:00,29.3,25.0,30.11,SE,136,0.0,6.5,83,0.00,,,0.00,SomeHackedPerlScript,2013-02-07 16:02:00,
2013-02-07 11:07:00,29.4,24.7,30.11,SE,138,1.2,4.5,82,0.00,,,0.00,SomeHackedPerlScript,2013-02-07 16:07:00,
2013-02-07 11:12:00,29.4,24.6,30.11,ESE,115,2.8,5.8,82,0.00,,,0.00,SomeHackedPerlScript,2013-02-07 16:12:00,
2013-02-07 11:17:00,29.6,24.3,30.11,North,11,0.0,6.6,80,0.00,,,0.00,SomeHackedPerlScript,2013-02-07 16:17:00,
2013-02-07 11:22:00,29.8,24.5,30.11,SE,127,2.0,7.5,80,0.00,,,0.00,SomeHackedPerlScript,2013-02-07 16:22:00,
2013-02-07 11:27:00,30.0,24.8,30.11,South,180,0.9,5.0,80,0.00,,,0.00,SomeHackedPerlScript,2013-02-07 16:27:00,
2013-02-07 11:32:00,30.1,24.5,30.11,South,170,0.0,6.9,79,0.00,,,0.00,SomeHackedPerlScript,2013-02-07 16:32:00,
2013-02-07 11:37:00,30.3,24.7,30.10,SSE,148,0.0,4.7,79,0.00,,,0.00,SomeHackedPerlScript,2013-02-07 16:37:00,
2013-02-07 11:42:00,30.1,25.1,30.10,ESE,110,0.8,4.9,81,0.00,,,0.00,SomeHackedPerlScript,2013-02-07 16:42:00,
2013-02-07 11:47:00,30.1,26.0,30.10,SE,139,1.2,6.4,84,0.00,,,0.00,SomeHackedPerlScript,2013-02-07 16:47:00,
2013-02-07 11:52:00,29.7,26.3,30.10,ESE,108,0.5,6.8,86,0.00,,,0.00,SomeHackedPerlScript,2013-02-07 16:52:00,
2013-02-07 11:57:00,29.8,26.9,30.09,ESE,103,3.2,6.3,88,0.00,,,0.00,SomeHackedPerlScript,2013-02-07 16:57:00,
2013-02-07 12:02:00,29.5,26.7,30.09,ENE,76,0.0,6.0,89,0.00,,,0.00,SomeHackedPerlScript,2013-02-07 17:02:00,
2013-02-07 12:07:00,29.6,27.2,30.09,ESE,104,1.2,6.7,90,0.00,,,0.00,SomeHackedPerlScript,2013-02-07 17:07:00,
2013-02-07 12:12:00,29.7,27.3,30.09,SE,129,0.0,5.8,90,0.00,,,0.00,SomeHackedPerlScript,2013-02-07 17:12:00,
2013-02-07 12:17:00,30.0,27.5,30.09,East,100,5.6,6.1,90,0.00,,,0.00,SomeHackedPerlScript,2013-02-07 17:17:00,
2013-02-07 12:22:00,30.3,27.6,30.08,ESE,112,0.0,6.1,89,0.00,,,0.00,SomeHackedPerlScript,2013-02-07 17:22:00,
2013-02-07 12:27:00,30.4,27.5,30.07,SE,125,1.7,8.9,89,0.00,,,0.00,SomeHackedPerlScript,2013-02-07 17:27:00,
2013-02-07 12:32:00,30.5,27.2,30.07,East,95,4.7,8.2,87,0.00,,,0.00,SomeHackedPerlScript,2013-02-07 17:32:00,
2013-02-07 12:37:00,30.7,27.3,30.07,SSE,154,1.5,6.6,87,0.00,,,0.00,SomeHackedPerlScript,2013-02-07 17:37:00,
2013-02-07 12:42:00,30.8,26.8,30.07,SE,125,3.5,6.5,84,0.00,,,0.00,SomeHackedPerlScript,2013-02-07 17:42:00,
2013-02-07 12:47:00,31.0,27.4,30.07,ESE,122,1.6,8.2,86,0.00,,,0.00,SomeHackedPerlScript,2013-02-07 17:47:00,
2013-02-07 12:52:00,31.1,26.8,30.07,East,83,0.0,6.0,83,0.00,,,0.00,SomeHackedPerlScript,2013-02-07 17:52:00,
2013-02-07 12:57:00,31.2,27.1,30.06,East,84,0.0,5.6,84,0.00,,,0.00,SomeHackedPerlScript,2013-02-07 17:57:00,
2013-02-07 13:02:00,31.5,27.2,30.06,ESE,117,0.0,4.8,84,0.00,,,0.00,SomeHackedPerlScript,2013-02-07 18:02:00,
2013-02-07 13:07:00,31.6,26.9,30.06,East,88,3.2,5.3,82,0.00,,,0.00,SomeHackedPerlScript,2013-02-07 18:07:00,
2013-02-07 13:12:00,31.8,26.9,30.06,East,94,4.6,7.3,81,0.01,,,0.01,SomeHackedPerlScript,2013-02-07 18:12:00,
2013-02-07 13:17:00,31.8,26.4,30.05,NNE,21,2.0,7.6,80,0.01,,,0.01,SomeHackedPerlScript,2013-02-07 18:17:00,
2013-02-07 13:22:00,31.6,26.5,30.05,East,101,3.7,6.2,81,0.01,,,0.01,SomeHackedPerlScript,2013-02-07 18:22:00,
2013-02-07 13:27:00,31.5,26.3,30.05,NNE,16,3.4,6.8,80,0.01,,,0.01,SomeHackedPerlScript,2013-02-07 18:27:00,
2013-02-07 13:32:00,31.9,27.1,30.04,ESE,118,2.3,6.5,82,0.01,,,0.01,SomeHackedPerlScript,2013-02-07 18:32:00,
2013-02-07 13:37:00,32.1,26.6,30.03,East,93,6.3,6.3,80,0.01,,,0.01,SomeHackedPerlScript,2013-02-07 18:37:00,
2013-02-07 13:42:00,31.9,26.4,30.03,East,88,4.0,9.2,79,0.01,,,0.01,SomeHackedPerlScript,2013-02-07 18:42:00,
2013-02-07 13:47:00,31.8,26.5,30.03,ESE,111,6.1,10.3,80,0.01,,,0.01,SomeHackedPerlScript,2013-02-07 18:47:00,
2013-02-07 13:52:00,31.7,26.7,30.03,ENE,74,5.6,11.2,81,0.02,,,0.02,SomeHackedPerlScript,2013-02-07 18:52:00,
2013-02-07 13:57:00,31.6,26.4,30.03,ESE,114,3.1,9.9,80,0.02,,,0.02,SomeHackedPerlScript,2013-02-07 18:57:00,
2013-02-07 14:02:00,31.5,26.0,30.02,ESE,111,3.3,7.4,80,0.02,,,0.02,SomeHackedPerlScript,2013-02-07 19:02:00,
2013-02-07 14:07:00,31.7,26.4,30.02,East,86,5.9,8.9,80,0.02,,,0.02,SomeHackedPerlScript,2013-02-07 19:07:00,
2013-02-07 14:12:00,31.7,26.1,30.02,ESE,107,2.8,7.5,79,0.02,,,0.03,SomeHackedPerlScript,2013-02-07 19:12:00,
2013-02-07 14:17:00,31.7,26.1,30.02,NE,46,6.1,9.0,79,0.02,,,0.03,SomeHackedPerlScript,2013-02-07 19:17:00,
2013-02-07 14:22:00,31.9,26.1,30.02,ESE,116,3.7,9.2,78,0.02,,,0.03,SomeHackedPerlScript,2013-02-07 19:22:00,
2013-02-07 14:27:00,32.0,26.3,30.01,ESE,102,2.3,10.4,79,0.02,,,0.03,SomeHackedPerlScript,2013-02-07 19:27:00,
2013-02-07 14:32:00,32.0,25.7,30.01,ENE,65,10.5,10.5,77,0.02,,,0.03,SomeHackedPerlScript,2013-02-07 19:32:00,
2013-02-07 14:37:00,32.1,26.0,30.01,ENE,68,6.3,11.9,78,0.02,,,0.03,SomeHackedPerlScript,2013-02-07 19:37:00,
2013-02-07 14:42:00,32.2,26.3,30.00,SE,129,3.8,11.2,78,0.02,,,0.03,SomeHackedPerlScript,2013-02-07 19:42:00,
2013-02-07 14:47:00,32.1,25.6,30.00,ESE,119,6.0,8.0,76,0.02,,,0.03,SomeHackedPerlScript,2013-02-07 19:47:00,
2013-02-07 14:52:00,32.1,25.6,30.00,East,88,3.5,10.2,76,0.01,,,0.03,SomeHackedPerlScript,2013-02-07 19:52:00,
2013-02-07 14:57:00,32.2,26.1,30.00,ESE,116,5.9,9.0,78,0.01,,,0.03,SomeHackedPerlScript,2013-02-07 19:57:00,
2013-02-07 15:02:00,32.4,26.1,30.00,East,96,4.1,8.4,77,0.01,,,0.03,SomeHackedPerlScript,2013-02-07 20:02:00,
2013-02-07 15:07:00,32.3,26.1,30.01,ENE,57,2.0,7.8,77,0.00,,,0.03,SomeHackedPerlScript,2013-02-07 20:07:00,
2013-02-07 15:12:00,32.3,26.4,30.00,NNE,19,2.1,8.1,78,0.00,,,0.03,SomeHackedPerlScript,2013-02-07 20:12:00,
2013-02-07 15:17:00,31.7,25.9,30.00,East,94,2.1,7.6,78,0.00,,,0.03,SomeHackedPerlScript,2013-02-07 20:17:00,
2013-02-07 15:22:00,31.5,26.5,30.00,ESE,112,7.3,9.1,81,0.00,,,0.03,SomeHackedPerlScript,2013-02-07 20:22:00,
2013-02-07 15:27:00,31.5,26.9,30.00,NE,52,8.2,8.2,82,0.00,,,0.03,SomeHackedPerlScript,2013-02-07 20:27:00,
2013-02-07 15:32:00,31.2,26.7,30.00,East,93,7.4,10.6,83,0.00,,,0.03,SomeHackedPerlScript,2013-02-07 20:32:00,
2013-02-07 15:37:00,31.1,27.0,29.99,NE,53,3.1,8.7,84,0.00,,,0.03,SomeHackedPerlScript,2013-02-07 20:37:00,
2013-02-07 15:42:00,31.1,27.2,29.99,ENE,74,3.9,8.5,85,0.00,,,0.03,SomeHackedPerlScript,2013-02-07 20:42:00,
2013-02-07 15:47:00,30.9,27.3,29.99,ENE,57,5.4,7.8,86,0.00,,,0.03,SomeHackedPerlScript,2013-02-07 20:47:00,
2013-02-07 15:52:00,30.8,27.6,29.99,ENE,57,4.8,7.6,87,0.00,,,0.03,SomeHackedPerlScript,2013-02-07 20:52:00,
2013-02-07 15:57:00,30.7,28.0,29.99,East,95,3.0,8.4,89,0.00,,,0.03,SomeHackedPerlScript,2013-02-07 20:57:00,
2013-02-07 16:02:00,30.4,27.9,29.98,ENE,76,4.3,7.6,90,0.00,,,0.03,SomeHackedPerlScript,2013-02-07 21:02:00,
2013-02-07 16:07:00,30.4,28.0,29.98,ENE,60,3.1,7.4,90,0.00,,,0.03,SomeHackedPerlScript,2013-02-07 21:07:00,
2013-02-07 16:12:00,30.1,27.9,29.98,ENE,74,3.7,6.7,91,0.00,,,0.03,SomeHackedPerlScript,2013-02-07 21:12:00,
2013-02-07 16:17:00,30.0,28.1,29.98,NE,54,4.1,8.1,92,0.00,,,0.03,SomeHackedPerlScript,2013-02-07 21:17:00,
2013-02-07 16:22:00,30.0,28.2,29.98,ENE,64,3.5,7.8,92,0.00,,,0.03,SomeHackedPerlScript,2013-02-07 21:22:00,
2013-02-07 16:27:00,30.0,28.3,29.98,NNE,31,2.1,9.1,93,0.01,,,0.04,SomeHackedPerlScript,2013-02-07 21:27:00,
2013-02-07 16:32:00,30.0,28.4,29.98,ENE,57,0.9,7.8,93,0.01,,,0.04,SomeHackedPerlScript,2013-02-07 21:32:00,
2013-02-07 16:37:00,30.1,28.5,29.98,ESE,108,5.1,5.7,93,0.01,,,0.04,SomeHackedPerlScript,2013-02-07 21:37:00,
2013-02-07 16:42:00,30.1,28.6,29.97,ENE,63,4.5,8.1,94,0.01,,,0.04,SomeHackedPerlScript,2013-02-07 21:42:00,
2013-02-07 16:47:00,30.0,28.6,29.97,NE,43,5.0,6.2,94,0.01,,,0.04,SomeHackedPerlScript,2013-02-07 21:47:00,
2013-02-07 16:52:00,30.0,28.6,29.97,ENE,70,4.0,8.3,94,0.01,,,0.04,SomeHackedPerlScript,2013-02-07 21:52:00,
2013-02-07 16:57:00,30.0,28.6,29.97,NE,38,0.4,8.2,94,0.01,,,0.04,SomeHackedPerlScript,2013-02-07 21:57:00,
2013-02-07 17:02:00,29.8,28.5,29.97,NE,49,2.9,6.1,94,0.01,,,0.04,SomeHackedPerlScript,2013-02-07 22:02:00,
2013-02-07 17:07:00,29.8,28.5,29.97,East,95,1.9,6.0,95,0.01,,,0.04,SomeHackedPerlScript,2013-02-07 22:07:00,
2013-02-07 17:12:00,29.8,28.6,29.97,East,79,1.2,6.4,95,0.01,,,0.04,SomeHackedPerlScript,2013-02-07 22:12:00,
2013-02-07 17:17:00,29.7,28.6,29.97,NE,49,3.0,5.2,95,0.01,,,0.04,SomeHackedPerlScript,2013-02-07 22:17:00,
2013-02-07 17:22:00,29.6,28.6,29.97,NNE,29,2.1,6.6,96,0.00,,,0.04,SomeHackedPerlScript,2013-02-07 22:22:00,
2013-02-07 17:27:00,29.6,28.6,29.96,NE,36,2.2,6.1,96,0.00,,,0.04,SomeHackedPerlScript,2013-02-07 22:27:00,
2013-02-07 17:32:00,29.7,28.8,29.96,NE,40,3.3,7.6,96,0.00,,,0.04,SomeHackedPerlScript,2013-02-07 22:32:00,
2013-02-07 17:37:00,29.6,28.7,29.96,East,95,2.7,5.4,96,0.00,,,0.04,SomeHackedPerlScript,2013-02-07 22:37:00,
2013-02-07 17:42:00,29.6,28.7,29.96,ENE,59,3.7,7.4,96,0.00,,,0.04,SomeHackedPerlScript,2013-02-07 22:42:00,
2013-02-07 17:47:00,29.6,28.8,29.96,NE,55,4.2,6.3,96,0.00,,,0.04,SomeHackedPerlScript,2013-02-07 22:47:00,
2013-02-07 17:52:00,29.5,28.7,29.95,ESE,116,6.3,6.9,96,0.00,,,0.04,SomeHackedPerlScript,2013-02-07 22:52:00,
2013-02-07 17:57:00,29.4,28.6,29.95,North,11,2.9,10.2,96,0.00,,,0.04,SomeHackedPerlScript,2013-02-07 22:57:00,
2013-02-07 18:02:00,29.6,28.8,29.95,East,81,3.7,7.3,96,0.00,,,0.04,SomeHackedPerlScript,2013-02-07 23:02:00,
2013-02-07 18:07:00,29.5,28.8,29.95,NE,42,2.1,6.5,97,0.00,,,0.04,SomeHackedPerlScript,2013-02-07 23:07:00,
2013-02-07 18:12:00,29.6,28.8,29.94,ENE,59,1.2,8.7,96,0.00,,,0.04,SomeHackedPerlScript,2013-02-07 23:12:00,
2013-02-07 18:17:00,29.6,28.8,29.94,NE,47,4.5,6.9,96,0.00,,,0.04,SomeHackedPerlScript,2013-02-07 23:17:00,
2013-02-07 18:22:00,29.5,28.7,29.94,East,93,4.5,8.2,96,0.00,,,0.04,SomeHackedPerlScript,2013-02-07 23:22:00,
2013-02-07 18:27:00,29.5,28.8,29.94,ENE,70,5.9,7.6,97,0.00,,,0.04,SomeHackedPerlScript,2013-02-07 23:27:00,
2013-02-07 18:32:00,29.5,28.8,29.94,NE,35,3.3,9.1,97,0.00,,,0.04,SomeHackedPerlScript,2013-02-07 23:32:00,
2013-02-07 18:37:00,29.6,28.9,29.94,NE,46,4.0,6.6,97,0.00,,,0.04,SomeHackedPerlScript,2013-02-07 23:37:00,
2013-02-07 18:42:00,29.5,28.8,29.94,East,87,5.8,9.9,97,0.00,,,0.04,SomeHackedPerlScript,2013-02-07 23:42:00,
2013-02-07 18:47:00,29.3,28.6,29.93,East,93,1.9,9.7,97,0.00,,,0.04,SomeHackedPerlScript,2013-02-07 23:47:00,
2013-02-07 18:52:00,29.4,28.7,29.94,ESE,111,4.2,10.1,97,0.00,,,0.04,SomeHackedPerlScript,2013-02-07 23:52:00,
2013-02-07 18:57:00,29.4,28.7,29.94,East,100,6.5,8.1,97,0.00,,,0.04,SomeHackedPerlScript,2013-02-07 23:57:00,
2013-02-07 19:02:00,29.4,28.7,29.94,ENE,63,6.8,8.7,97,0.00,,,0.04,SomeHackedPerlScript,2013-02-08 00:02:00,
2013-02-07 19:07:00,29.3,28.6,29.94,East,84,4.3,7.8,97,0.00,,,0.04,SomeHackedPerlScript,2013-02-08 00:07:00,
2013-02-07 19:12:00,29.3,28.6,29.94,NE,52,4.8,7.3,97,0.00,,,0.04,SomeHackedPerlScript,2013-02-08 00:12:00,
2013-02-07 19:17:00,29.4,28.7,29.94,SSE,147,1.3,5.8,97,0.00,,,0.04,SomeHackedPerlScript,2013-02-08 00:17:00,
2013-02-07 19:22:00,29.3,28.7,29.94,ENE,62,4.8,6.0,97,0.00,,,0.04,SomeHackedPerlScript,2013-02-08 00:22:00,
2013-02-07 19:27:00,29.3,28.7,29.94,NE,55,3.6,8.5,97,0.00,,,0.04,SomeHackedPerlScript,2013-02-08 00:27:00,
2013-02-07 19:32:00,29.2,28.6,29.94,East,87,5.5,9.5,97,0.00,,,0.04,SomeHackedPerlScript,2013-02-08 00:32:00,
2013-02-07 19:37:00,29.3,28.7,29.94,East,100,1.7,6.6,97,0.00,,,0.04,SomeHackedPerlScript,2013-02-08 00:37:00,
2013-02-07 19:42:00,29.3,28.7,29.94,East,98,2.4,7.6,97,0.00,,,0.04,SomeHackedPerlScript,2013-02-08 00:42:00,
2013-02-07 19:47:00,29.2,28.7,29.93,ENE,72,3.1,6.5,97,0.00,,,0.04,SomeHackedPerlScript,2013-02-08 00:47:00,
2013-02-07 19:52:00,29.3,28.8,29.93,ENE,58,4.5,8.1,97,0.00,,,0.04,SomeHackedPerlScript,2013-02-08 00:52:00,
2013-02-07 19:57:00,29.3,28.8,29.93,ESE,109,6.8,8.2,97,0.00,,,0.04,SomeHackedPerlScript,2013-02-08 00:57:00,
2013-02-07 20:02:00,29.2,28.7,29.93,NE,47,3.3,8.5,98,0.00,,,0.04,SomeHackedPerlScript,2013-02-08 01:02:00,
2013-02-07 20:07:00,29.3,28.8,29.93,NE,36,6.4,7.9,98,0.00,,,0.04,SomeHackedPerlScript,2013-02-08 01:07:00,
2013-02-07 20:12:00,29.3,28.8,29.92,ENE,61,4.3,9.6,98,0.00,,,0.04,SomeHackedPerlScript,2013-02-08 01:12:00,
2013-02-07 20:17:00,29.4,28.9,29.92,NE,53,4.8,10.0,98,0.00,,,0.04,SomeHackedPerlScript,2013-02-08 01:17:00,
2013-02-07 20:22:00,29.3,28.8,29.92,ENE,60,3.8,6.6,98,0.00,,,0.04,SomeHackedPerlScript,2013-02-08 01:22:00,
2013-02-07 20:26:00,29.2,28.7,29.92,ENE,66,4.5,9.0,98,0.00,,,0.04,SomeHackedPerlScript,2013-02-08 01:26:00,
2013-02-07 20:32:00,29.2,28.7,29.91,NE,52,1.4,9.8,98,0.00,,,0.04,SomeHackedPerlScript,2013-02-08 01:32:00,
2013-02-07 20:36:00,29.2,28.7,29.92,ENE,73,3.8,11.2,98,0.00,,,0.04,SomeHackedPerlScript,2013-02-08 01:36:00,
2013-02-07 20:41:00,29.2,28.7,29.92,East,101,4.0,9.7,98,0.00,,,0.04,SomeHackedPerlScript,2013-02-08 01:41:00,
2013-02-07 20:46:00,29.1,28.7,29.91,ENE,59,6.0,7.9,98,0.00,,,0.04,SomeHackedPerlScript,2013-02-08 01:46:00,
2013-02-07 20:51:00,29.1,28.7,29.91,ESE,104,4.0,9.5,98,0.00,,,0.04,SomeHackedPerlScript,2013-02-08 01:51:00,
2013-02-07 20:56:00,29.0,28.5,29.91,ENE,71,4.8,9.5,98,0.00,,,0.04,SomeHackedPerlScript,2013-02-08 01:56:00,
2013-02-07 21:01:00,28.9,28.4,29.91,ENE,71,4.9,7.9,98,0.00,,,0.04,SomeHackedPerlScript,2013-02-08 02:01:00,
2013-02-07 21:06:00,28.9,28.5,29.91,East,96,6.7,11.8,98,0.00,,,0.04,SomeHackedPerlScript,2013-02-08 02:06:00,
2013-02-07 21:11:00,29.0,28.6,29.91,East,86,3.9,10.5,98,0.00,,,0.04,SomeHackedPerlScript,2013-02-08 02:11:00,
2013-02-07 21:16:00,28.9,28.5,29.91,ESE,115,5.6,8.4,98,0.00,,,0.04,SomeHackedPerlScript,2013-02-08 02:16:00,
2013-02-07 21:21:00,28.8,28.4,29.91,East,81,6.8,8.4,98,0.00,,,0.04,SomeHackedPerlScript,2013-02-08 02:21:00,
2013-02-07 21:26:00,28.8,28.4,29.92,NE,50,3.7,8.3,98,0.00,,,0.04,SomeHackedPerlScript,2013-02-08 02:26:00,
2013-02-07 21:31:00,28.8,28.4,29.91,ENE,57,4.1,8.6,98,0.00,,,0.04,SomeHackedPerlScript,2013-02-08 02:31:00,
2013-02-07 21:36:00,28.8,28.4,29.91,ENE,75,4.5,6.0,98,0.00,,,0.04,SomeHackedPerlScript,2013-02-08 02:36:00,
2013-02-07 21:41:00,28.7,28.3,29.91,ENE,59,3.6,7.9,98,0.00,,,0.04,SomeHackedPerlScript,2013-02-08 02:41:00,
2013-02-07 21:46:00,28.7,28.3,29.91,ENE,69,1.8,8.6,98,0.00,,,0.04,SomeHackedPerlScript,2013-02-08 02:46:00,
2013-02-07 21:51:00,28.7,28.3,29.91,NE,41,2.3,6.3,98,0.00,,,0.04,SomeHackedPerlScript,2013-02-08 02:51:00,
2013-02-07 21:56:00,28.7,28.3,29.91,East,97,3.3,7.9,98,0.00,,,0.04,SomeHackedPerlScript,2013-02-08 02:56:00,
2013-02-07 22:01:00,28.5,28.1,29.91,NE,39,1.2,8.2,98,0.00,,,0.04,SomeHackedPerlScript,2013-02-08 03:01:00,
2013-02-07 22:06:00,28.6,28.2,29.91,East,100,4.2,5.5,98,0.00,,,0.04,SomeHackedPerlScript,2013-02-08 03:06:00,
2013-02-07 22:11:00,28.4,28.0,29.91,East,81,2.7,5.8,98,0.00,,,0.04,SomeHackedPerlScript,2013-02-08 03:11:00,
2013-02-07 22:16:00,28.5,28.1,29.91,ENE,64,2.0,6.1,98,0.00,,,0.04,SomeHackedPerlScript,2013-02-08 03:16:00,
2013-02-07 22:21:00,28.5,28.1,29.92,ENE,77,3.5,5.5,98,0.00,,,0.04,SomeHackedPerlScript,2013-02-08 03:21:00,
2013-02-07 22:26:00,28.3,27.9,29.91,NE,53,4.6,6.1,98,0.00,,,0.04,SomeHackedPerlScript,2013-02-08 03:26:00,
2013-02-07 22:31:00,28.2,27.8,29.91,NNE,28,3.8,7.6,98,0.00,,,0.04,SomeHackedPerlScript,2013-02-08 03:31:00,
2013-02-07 22:36:00,28.1,27.7,29.91,East,100,5.1,8.4,98,0.00,,,0.04,SomeHackedPerlScript,2013-02-08 03:36:00,
2013-02-07 22:41:00,28.2,27.8,29.91,ENE,73,4.7,7.7,98,0.00,,,0.04,SomeHackedPerlScript,2013-02-08 03:41:00,
2013-02-07 22:46:00,28.1,27.7,29.91,NE,53,1.7,9.5,98,0.00,,,0.04,SomeHackedPerlScript,2013-02-08 03:46:00,
2013-02-07 22:51:00,28.1,27.7,29.91,East,100,2.3,6.0,98,0.00,,,0.04,SomeHackedPerlScript,2013-02-08 03:51:00,
2013-02-07 22:56:00,28.0,27.6,29.90,NE,49,5.0,6.0,98,0.00,,,0.00,SomeHackedPerlScript,2013-02-08 03:56:00,
2013-02-07 23:01:00,28.0,27.6,29.90,NE,54,4.9,8.5,98,0.00,,,0.00,SomeHackedPerlScript,2013-02-08 04:01:00,
2013-02-07 23:06:00,28.0,27.6,29.90,NE,36,2.4,7.6,98,0.00,,,0.00,SomeHackedPerlScript,2013-02-08 04:06:00,
2013-02-07 23:11:00,28.0,27.6,29.89,NNE,32,3.0,6.4,98,0.00,,,0.00,SomeHackedPerlScript,2013-02-08 04:11:00,
2013-02-07 23:16:00,28.0,27.6,29.89,ENE,76,5.6,7.1,98,0.00,,,0.00,SomeHackedPerlScript,2013-02-08 04:16:00,
2013-02-07 23:21:00,28.0,27.6,29.89,NE,35,5.0,8.1,98,0.00,,,0.00,SomeHackedPerlScript,2013-02-08 04:21:00,
2013-02-07 23:26:00,28.0,27.6,29.88,NE,41,6.8,6.8,98,0.00,,,0.00,SomeHackedPerlScript,2013-02-08 04:26:00,
2013-02-07 23:31:00,27.9,27.5,29.88,NE,46,4.7,7.6,98,0.00,,,0.00,SomeHackedPerlScript,2013-02-08 04:31:00,
2013-02-07 23:36:00,28.0,27.6,29.88,NE,49,5.7,5.7,98,0.00,,,0.00,SomeHackedPerlScript,2013-02-08 04:36:00,
2013-02-07 23:41:00,27.9,27.5,29.88,NE,52,3.0,6.6,98,0.00,,,0.00,SomeHackedPerlScript,2013-02-08 04:41:00,
2013-02-07 23:46:00,28.0,27.6,29.88,NNE,31,3.4,8.9,98,0.00,,,0.00,SomeHackedPerlScript,2013-02-08 04:46:00,
2013-02-07 23:51:00,27.8,27.4,29.88,NNE,26,4.1,7.0,98,0.00,,,0.00,SomeHackedPerlScript,2013-02-08 04:51:00,
2013-02-07 23:56:00,27.8,27.4,29.88,ENE,58,2.4,6.8,98,0.00,,,0.00,SomeHackedPerlScript,2013-02-08 04:56:00,